Zurück zum Katalog

STARLINK-5827

AktivKommunikationVLEO
NORAD 57066·PAYLOAD·🇺🇸 United States

Gestartet Jun 22, 2023 von Vandenberg Space Force Base

Loading…

Nächste Überflüge (nächste 24 Stunden)

TLE

AktuellSource: CelesTrak SupGP

Epoche: Sep 14, 2026, 21:53 UTC

1 57066C 23088U   26257.91229167 -.00003538  00000+0 -12828-3 0  2575
2 57066  42.9997 121.9573 0001303 219.6334  96.4077 15.27544396    19

Verfolge STARLINK-5827 in Echtzeit mit AllMySat

Download on the App Store